Starlink 4673

operational
NORAD ID: 53589 Int'l Des: 2022-104 Owner: SPXS Country: US Constellation: starlink
LEOCIRCULAR

Über Starlink 4673

Beschreibung wird geladen...

Live-Position

3D-Globus wird geladen...

Nächste Überflüge

Höhenverlauf

Altitude vs Time

uPlot chart will show altitude changes over time

Zweizeiliger Elementsatz

1 53589U 22104B 25304.84969131 .00000253 00000-0 33970-4 0 9990
2 53589 53.2169 102.5555 0001464 90.0048 270.1112 15.08840046176494
Epoch: 31. Okt. 2025 • Age: 29 hours

Aktueller Status

Höhe 539.6 km
Geschwindigkeit 7.59 km/s
Subsatellitenpunkt 10.29°N, 158.47°W
Startdatum 28. Aug. 2022
Alter 3.1 years
Typ internet

Technische Details

Klassifizierung Payload
Masse 300.00 kg
Trockenmasse 290.00 kg
Gesamtmasse 300.00 kg
Länge 0.20 m
Durchmesser 2.80 m
Spannweite 9.00 m
Form Box + pan
Hersteller SPXS
Bus-Typ Starlink
Phasenstatus In Orbit
Besitzer/Staat SPXS/US

Große Konstellationen

Loading constellations...